This is the latest recevied weather packets stored in our database for station/object VE3MJM-WX. If no packets are shown the sender has not sent any weather packets the latest 10 day(s).
| Time | Temp. | Humidity | Pressure | Rain* | Wind** | Luminosity | Snow |
|---|---|---|---|---|---|---|---|
| 1777786115 | -2.22° C | 87% | 1010.4 hPa | 0 mm | - | - | - |
| 1777785211 | -2.78° C | 86% | 1010.7 hPa | 0 mm | - | - | - |
| 1777784307 | -2.78° C | 90% | 1010.8 hPa | 0 mm | - | - | - |
| 1777783404 | -2.78° C | 92% | 1011 hPa | 0 mm | - | - | - |
| 1777782501 | -2.78° C | 90% | 1011 hPa | 0 mm | - | - | - |
| 1777781599 | -2.22° C | 87% | 1010.9 hPa | 0 mm | - | - | - |
| 1777780699 | -2.22° C | 88% | 1011 hPa | 0 mm | - | - | - |
| 1777779794 | -2.22° C | 87% | 1011.1 hPa | 0 mm | - | - | - |
| 1777778893 | -2.22° C | 87% | 1011.2 hPa | 0 mm | - | - | - |
| 1777777991 | -1.67° C | 84% | 1011.3 hPa | 0 mm | - | - | - |
| 1777777088 | -1.67° C | 82% | 1011 hPa | 0 mm | - | - | - |
| 1777776184 | -1.67° C | 83% | 1011.4 hPa | 0 mm | - | - | - |
| 1777775283 | -1.11° C | 77% | 1011.5 hPa | 0 mm | - | - | - |
| 1777774381 | -0.56° C | 78% | 1011.3 hPa | 0 mm | - | - | - |
| 1777773476 | 0° C | 71% | 1011.2 hPa | 0 mm | - | - | - |
| 1777772574 | 0.56° C | 65% | 1011 hPa | 0 mm | - | - | - |
| 1777771671 | 0.56° C | 67% | 1010.9 hPa | 0 mm | - | - | - |
| 1777770768 | 1.11° C | 64% | 1010.9 hPa | 0 mm | - | - | - |
| 1777769866 | 2.22° C | 58% | 1010.7 hPa | 0 mm | - | - | - |
| 1777768963 | 3.33° C | 51% | 1010.5 hPa | 0 mm | - | - | - |
| 1777768061 | 3.89° C | 47% | 1010.4 hPa | 0 mm | - | - | - |
| 1777767158 | 4.44° C | 45% | 1010.2 hPa | 0 mm | - | - | - |
| 1777766256 | 5° C | 44% | 1010 hPa | 0 mm | - | - | - |
| 1777765353 | 5° C | 44% | 1010.1 hPa | 0 mm | - | - | - |
| 1777764450 | 5.56° C | 40% | 1010 hPa | 0 mm | - | - | - |
* Rain latest hour (hover to see other rain measurements)
** Current wind speed in m/s (hover to see current wind gust speed)